Regional Weather Roundup
Issued by NWS

Home | Current Version | Previous Version | Text Only | Print | Product List | Glossary Off
Versions: 1 2 3 4 5 6 7 8 9 10 11 12 13 14 15 16 17 18 19 20 21 22 23 24 25 26 27 28 29 30 31 32 33 34 35 36 37 38 39 40 41 42 43 44 45 46 47 48 49 50

000
ASUS43 KMKX 251021
RWRWI

WISCONSIN REGIONAL WEATHER ROUNDUP
NATIONAL WEATHER SERVICE MILWAUKEE/SULLIVAN WI
500 AM CDT SUN SEP 25 2016

NOTE: "FAIR" INDICATES FEW OR NO CLOUDS BELOW 12,000 FEET WITH NO
SIGNIFICANT WEATHER AND/OR OBSTRUCTIONS TO VISIBILITY.

WIZ001-002-006>008-014>016-023>028-251100-
NORTHWEST WISCONSIN

CITY           SKY/WX    TMP DP  RH WIND       PRES   REMARKS
SUPERIOR ARPT  CLOUDY    60  59  99 NE5       29.92F
ASHLAND        CLOUDY    60  57  89 SE5       29.97F
HAYWARD        CLOUDY    61  58  90 S8        29.98F
SIREN          CLOUDY    65  61  87 S12G20    29.93F
CUMBERLAND     CLOUDY    61  59  94 SE9       29.96F FOG
RICE LAKE      CLOUDY    63  60  91 SE9       29.98F FOG
CHETEK         NOT AVBL
LADYSMITH      CLOUDY    62  59  91 SE9       30.01F
EAU CLAIRE     CLOUDY    65  62  90 SE7       29.97F
MENOMONIE      CLOUDY    65  63  91 SE6       29.97S
NEW RICHMOND   CLOUDY    65  63  95 SE6       29.93F
OSCEOLA        DRIZZLE   65  65 100 SE10      29.94F
$$

WIZ003>005-009-010-017-018-251100-
NORTH CENTRAL WISCONSIN

CITY           SKY/WX    TMP DP  RH WIND       PRES   REMARKS
MANITOWISH WTR NOT AVBL
ARBOR VITAE    CLOUDY    59  55  85 SE12      30.06F
WOODRUFF       CLOUDY    59  55  85 SE12      30.06F
RHINELANDER    CLOUDY    57  55  93 SE7       30.08F
EAGLE RIVER    CLOUDY    57  51  79 S6        30.07F
LAND O LAKES   CLOUDY    57  52  84 SE7       30.09F
PHILLIPS       CLOUDY    60  58  92 SE8       30.03F
TOMAHAWK       CLOUDY    56  53  88 SE5       30.06F
MEDFORD        CLOUDY    58  58 100 SE8       30.03F
MERRILL        CLOUDY    57  55  95 SE7       30.07F
$$

WIZ029-030-035-036-043>047-251100-
CENTRAL WISCONSIN

CITY           SKY/WX    TMP DP  RH WIND       PRES   REMARKS
WAUSAU         MOCLDY    56  54  93 SE7       30.05F
MOSINEE        PTCLDY    54  54 100 E6        30.07F
MARSHFIELD     CLOUDY    59  56  89 SE8       30.04F
STEVENS POINT  CLOUDY    56  55  99 E5        30.06F
WAUPACA        CLOUDY    58  57  99 CALM      30.08F
WAUTOMA        CLOUDY    57  56  96 E3        30.07F
WISC RAPIDS    MOCLDY    59  58  96 SE6       30.05F
CAMP DOUGLAS   CLOUDY    59  59  98 E6        30.02F
$$

WIZ011>013-019>022-031-037>040-048>050-251100-
NORTHEAST WISCONSIN

CITY           SKY/WX    TMP DP  RH WIND       PRES   REMARKS
ANTIGO         CLOUDY    56  54  91 CALM      30.10F
SHAWANO        MOCLDY    60  56  87 SE3       30.10F
OCONTO         NOT AVBL
STURGEON BAY   CLOUDY    62  56  80 SE12      30.13F
GREEN BAY      PTCLDY    61  60  97 SE8       30.10F
MANITOWOC      CLEAR     63  58  83 SE8       30.12F
APPLETON       CLOUDY    61  59  94 SE8       30.07F
CLINTONVILLE   NOT AVBL
OSHKOSH        PTCLDY    61  58  90 SE6       30.07F
$$

WIZ032>034-041-042-053>061-251100-
SOUTHWEST WISCONSIN

CITY           SKY/WX    TMP DP  RH WIND       PRES   REMARKS
LA CROSSE      CLOUDY    68  64  87 S10       29.97F
SPARTA         CLOUDY    61  61  99 CALM      30.01F
VIROQUA        CLOUDY    62  62 100 SE6       30.02F
BOSCOBEL       CLOUDY    63  62  97 NE5       30.01F FOG
PRAIRIE DU CHI CLOUDY    65  62  89 CALM      30.00F
PLATTEVILLE    PTCLDY    63  63 100 E6        30.03F
$$

WIZ056-057-062-063-064-067-068-251100-
SOUTH CENTRAL WISCONSIN

CITY           SKY/WX    TMP DP  RH WIND       PRES   REMARKS
REEDSBURG      NOT AVBL
BARABOO/DELLS  PTCLDY    63  60  93 SE6       30.04F
LONE ROCK      CLOUDY    63  61  93 E6        30.03F
MINERAL POINT  PTCLDY    64  64 100 SE9       30.04F
MADISON        CLOUDY    63  61  93 S5        30.05F
MIDDLETON      CLOUDY    64  64 100 SE5       30.06S
WATERTOWN      CLOUDY    62  62 100 SE6       30.07S
MONROE         PTCLDY    63  63 100 SE8       30.06S FOG
JANESVILLE     CLOUDY    66  64  94 SE7       30.06S
$$

WIZ051-052-058>065-066-070>072-251100-
SOUTHEAST WISCONSIN

CITY           SKY/WX    TMP DP  RH WIND       PRES   REMARKS
MILWAUKEE      PTCLDY    66  63  90 SE7       30.10F
WAUKESHA       PTCLDY    61  61 100 SE8       30.10S
MILWAUKEE/TIMM CLEAR     64  59  82 SE3       30.10F
RACINE         CLEAR     67  62  84 S9        30.11F
BURLINGTON     PTCLDY    57  57  99 CALM      30.09S FOG
KENOSHA        PTCLDY    66  62  87 SE10      30.10F
FOND DU LAC    PTCLDY    62  60  93 SE8       30.08F
SHEBOYGAN      MOCLDY    63  59  87 SE8       30.10F
WEST BEND      CLEAR     61  59  94 SE3       30.10S
JUNEAU         CLOUDY    62  60  94 SE9       30.08F
$$

LSZ147-162-251100-
LAKE SUPERIOR

STATION/POSITION TIME  TEMP    WIND        PRES    WAVE
                       AIR SEA DIR/SP/G            HT/PER
                 (UTC) (F)     (DEG/KT/KT) (MB)    (FT/S)
W MID LAKE BUOY  0950   62 60  150/ 14/ 16 1015.1F   3/ 4
DEVILS ISLAND    1000   62     140/  6/  7 1015.1F
SAXON HARBOR     0940   63     190/  4/  7 1014.9F
$$

LMZ867-665-643>646-251100-
LAKE MICHIGAN

STATION/POSITION TIME  TEMP    WIND        PRES    WAVE
                       AIR SEA DIR/SP/G            HT/PER
                 (UTC) (F)     (DEG/KT/KT) (MB)    (FT/S)
CHAMBERS ISLAND  0900   63     140/  5/ 10 1020.0S
S GREEN BAY BUOY 1000   63 66  140/ 10/ 14 1019.1F
N MID LAKE BUOY  0950   62 67  170/ 17/ 19 1020.3F   3/ 4
NORTHPORT PIER   0900   63     150/ 13/ 16 1020.3F
SISTER BAY       0938   62     160/ 11/ 14   N/A
KEWAUNEE LAKESHO 0900   64     150/ 11/ 14 1019.8F
SHEBOYGAN LAKESH 1000   64     150/ 14/ 15 1019.0F
PORT WASHINGTON  0940   62     160/  1/  2 1020.0F
ATWATER BUOY     1000   65 62  140/  8/ 12 1019.1F
MILWAUKEE LAKESH 0910   63        CALM       N/A
S MID LAKE BUOY  0950   67 72  140/ 17/ 21 1019.4R   3/ 4
KENOSHA   LAKESH 1000   66     160/ 15/ 16 1018.6F
$$

TC  - TEMPERATURE IN CELSIUS
VSB - VISIBILITY IN STATUTE MILES
WCI - WIND CHILL INDEX
HX  - HEAT INDEX




USA.gov is the U.S. government's official web portal to all federal, state and local government web resources and services.